Stations météo

réclame
Mon MeteoGroup
Potsdam, Allemagne (10379): Température de l'air & dewpoint: 18.05.2019 03:00:00 - 24.05.2019 03:00:00 (CEST)Potsdam, Allemagne (10379): Température de l'air 5cm & Température de l'air -5cm: 18.05.2019 03:00:00 - 24.05.2019 03:00:00 (CEST)Potsdam, Allemagne (10379): Température de l'air -20cm & Température de l'air -100cm: 18.05.2019 03:00:00 - 24.05.2019 03:00:00 (CEST)Potsdam, Allemagne (10379): Vitesse du vent & gusts: 18.05.2019 03:00:00 - 24.05.2019 03:00:00 (CEST)Potsdam, Allemagne (10379): Direction du vent: 18.05.2019 03:00:00 - 24.05.2019 03:00:00 (CEST)Potsdam, Allemagne (10379): reduced air pressure: 18.05.2019 03:00:00 - 24.05.2019 03:00:00 (CEST)Potsdam, Allemagne (10379): visibility: 18.05.2019 03:00:00 - 24.05.2019 03:00:00 (CEST)Potsdam, Allemagne (10379): Ensoleillement: 18.05.2019 03:00:00 - 24.05.2019 03:00:00 (CEST)Potsdam, Allemagne (10379): Quantités de précipitations: 18.05.2019 03:00:00 - 24.05.2019 03:00:00 (CEST)
Date & Time tt [°C] td [°C] tt 5cm [°C] tt -5cm [°C] tt -20cm [°C] tt -100cm [°C] ff [km/h] ff [knt] fx [km/h] fx [knt] dd ppp [hPa] vv [km] sd [min] rr [mm]
24.05.2019 03:00:00 11,6 7,1 8,5 14,6 18,2 14,9 16 9 23 12 S 1016,5 50 0 0,0
24.05.2019 02:00:00 11,7 7,1 8,6 15,2 18,8 14,9 14 8 23 13 SSE 1016,8 50 0 0,0
24.05.2019 01:00:00 12,1 7,4 9,3 16,1 19,4 14,9 12 7 20 11 SE 1017,0 50 0 0,0
24.05.2019 00:00:00 12,6 7,3 9,7 17,2 20,0 14,9 13 7 16 9 ESE 1017,2 50 0 0,0
23.05.2019 23:00:00 14,0 6,5 10,7 18,5 20,7 15,0 11 6 13 7 ESE 1017,3 50 0 0,0
23.05.2019 22:00:00 14,6 6,5 11,4 19,9 21,3 15,0 7 4 8 4 E 1017,4 50 0 0,0
23.05.2019 21:00:00 15,7 6,4 14,0 21,9 21,8 15,0 8 4 13 7 ENE 1017,3 50 2 0,0
23.05.2019 20:00:00 17,4 5,0 17,0 24,0 22,1 15,0 8 4 17 9 NW 1017,0 50 32 0,0
23.05.2019 19:00:00 19,0 4,2 21,1 26,4 22,1 15,0 6 3 18 10 NW 1017,0 50 55 0,0
23.05.2019 18:00:00 19,0 5,8 20,3 28,7 21,8 15,0 11 6 24 13 NNW 1017,2 50 53 0,0
23.05.2019 17:00:00 18,3 4,2 22,0 30,2 21,1 15,1 11 6 24 13 NW 1017,5 50 53 0,0
23.05.2019 16:00:00 19,1 5,9 22,4 31,0 20,0 15,1 14 7 25 13 NNW 1017,7 50 57 0,0
23.05.2019 15:00:00 18,9 7,0 23,8 30,3 18,8 15,1 14 7 32 17 WNW 1018,1 45 60 0,0
23.05.2019 14:00:00 16,6 4,9 20,8 27,5 17,7 15,1 13 7 29 16 NW 1018,8 45 60 0,0
23.05.2019 13:00:00 16,0 3,7 19,9 26,8 16,4 15,2 16 8 28 15 WNW 1019,0 40 60 0,0
23.05.2019 12:00:00 15,9 4,9 21,1 24,5 15,1 15,2 12 6 26 14 WNW 1019,1 40 60 0,0
23.05.2019 11:00:00 14,6 6,6 17,0 20,5 14,0 15,2 9 5 25 14 WNW 1019,2 40 58 0,0
23.05.2019 10:00:00 13,9 8,2 16,8 16,7 13,4 15,2 9 5 25 13 WNW 1019,2 35 39 0,0
23.05.2019 09:00:00 11,4 7,4 13,1 12,6 13,2 15,2 14 8 22 12 W 1019,3 35 38 0,0
23.05.2019 08:00:00 9,8 7,3 8,6 10,1 13,3 15,2 11 6 23 12 WNW 1019,0 28 60 0,0
23.05.2019 07:00:00 8,0 7,0 7,1 9,8 13,6 15,2 11 6 21 11 WNW 1018,8 20 49 0,0
23.05.2019 06:00:00 7,5 6,7 6,2 9,9 14,0 15,3 13 7 20 11 W 1018,5 16 0 0,0
23.05.2019 05:00:00 8,2 6,7 7,1 10,7 14,3 15,3 14 7 24 13 W 1018,4 30 0 0,0
23.05.2019 04:00:00 9,6 7,1 9,3 11,6 14,5 15,3 13 7 30 16 NW 1018,1 40 0 0,0
23.05.2019 03:00:00 10,5 7,4 10,3 12,0 14,7 15,3 18 10 31 17 WNW 1018,0 45 0 0,0
23.05.2019 02:00:00 10,9 7,7 10,6 12,2 14,9 15,3 19 10 32 18 WNW 1017,9 45 0 0,0
23.05.2019 01:00:00 11,4 7,7 11,1 12,5 15,1 15,3 20 11 31 17 WNW 1017,6 45 0 0,0
23.05.2019 00:00:00 11,5 8,0 11,1 12,8 15,4 15,3 19 10 29 16 WNW 1017,3 45 0 0,0
22.05.2019 23:00:00 11,5 8,2 11,1 13,0 15,6 15,3 19 11 37 20 WNW 1017,3 45 0 0,0
22.05.2019 22:00:00 12,1 7,8 11,6 13,3 15,8 15,3 23 12 42 23 WNW 1016,8 30 0 0,0
22.05.2019 21:00:00 12,5 8,2 11,6 13,8 16,0 15,3 24 13 43 23 WNW 1016,1 30 0 0,0
22.05.2019 20:00:00 12,5 9,2 11,8 14,2 16,2 15,3 21 12 38 20 WNW 1015,6 28 0 0,0
22.05.2019 19:00:00 12,2 9,9 11,9 14,5 16,4 15,3 18 10 46 25 WNW 1015,5 18 0 0,0
22.05.2019 18:00:00 12,2 10,0 12,0 14,7 16,5 15,3 23 13 41 22 WNW 1015,2 20 0 0,0
22.05.2019 17:00:00 12,1 10,1 12,0 15,0 16,7 15,2 22 12 48 26 WNW 1015,0 10 0 0,0
22.05.2019 16:00:00 11,9 10,1 11,9 15,2 16,8 15,2 28 15 48 26 WNW 1014,5 9 0 0,0
22.05.2019 15:00:00 11,8 10,4 11,9 15,3 17,0 15,2 24 13 47 25 WNW 1014,3 7 0 0,0
22.05.2019 14:00:00 11,7 10,6 11,9 15,8 17,1 15,2 25 13 51 28 WNW 1014,0 7 0 0,0
22.05.2019 13:00:00 11,5 10,8 12,1 16,0 17,2 15,2 23 13 46 25 WNW 1013,7 6 0 0,1
22.05.2019 12:00:00 11,5 11,0 12,2 15,6 17,3 15,2 26 14 47 26 WNW 1013,1 6 0 0,3
22.05.2019 11:00:00 11,5 10,9 12,0 15,5 17,5 15,1 26 14 43 23 WNW 1012,9 5 0 0,4
22.05.2019 10:00:00 11,4 10,7 11,7 15,5 17,7 15,1 21 12 41 22 WNW 1012,3 5 0 0,5
22.05.2019 09:00:00 11,3 10,6 11,7 15,6 18,0 15,1 24 13 42 23 WNW 1011,9 2,5 0 0,1
22.05.2019 08:00:00 11,6 11,0 12,0 15,9 18,3 15,1 24 13 39 21 W 1011,3 3,0 0 0,6
22.05.2019 07:00:00 12,2 11,6 12,5 16,3 18,6 15,1 23 13 41 22 W 1011,0 4,0 0 0,0
22.05.2019 06:00:00 13,1 11,6 13,4 16,8 18,9 15,0 21 12 48 26 NW 1010,5 10 0 0,0
22.05.2019 05:00:00 13,9 12,3 14,1 17,3 19,2 15,0 20 11 45 24 WNW 1009,8 27 0 0,0
22.05.2019 04:00:00 14,2 12,5 14,4 17,6 19,6 15,0 18 10 39 21 W 1009,5 26 0 0,0
22.05.2019 03:00:00 14,6 12,8 14,9 18,1 19,9 15,0 19 10 40 22 WNW 1009,1 23 0 0,0
22.05.2019 02:00:00 14,9 13,4 15,3 18,6 20,2 15,0 22 12 42 23 W 1008,9 10 0 0,0
22.05.2019 01:00:00 16,1 14,3 16,4 19,0 20,6 14,9 18 10 30 16 W 1008,9 15 0 0,0
22.05.2019 00:00:00 16,4 14,4 16,5 19,4 21,1 14,9 16 8 31 17 WNW 1009,0 16 0 0,0
21.05.2019 23:00:00 16,8 14,4 16,5 19,9 21,6 14,9 16 8 32 17 NW 1008,5 28 0 0,0
21.05.2019 22:00:00 17,1 13,5 16,7 20,8 22,2 14,9 17 9 31 17 WNW 1007,9 28 0 0,0
21.05.2019 21:00:00 18,7 12,9 17,9 22,6 22,6 14,9 16 9 35 19 NW 1007,0 30 0 0,0
21.05.2019 20:00:00 21,6 12,8 21,3 24,8 22,8 14,9 13 7 26 14 NNW 1006,1 40 45 0,0
21.05.2019 19:00:00 22,5 11,7 23,5 26,7 22,7 14,9 16 9 24 13 WNW 1005,6 45 33 0,0
21.05.2019 18:00:00 22,6 12,1 23,4 28,8 22,3 14,9 11 6 20 11 NW 1005,4 45 49 0,0
21.05.2019 17:00:00 23,7 12,4 25,8 29,2 21,7 14,9 11 6 22 12 NW 1005,3 45 60 0,0
21.05.2019 16:00:00 23,0 12,8 25,3 27,0 21,2 14,9 11 6 17 9 WNW 1005,5 45 24 0,0
21.05.2019 15:00:00 21,7 12,8 23,0 26,2 20,9 14,9 11 6 18 10 WNW 1005,3 40 16 0,0
21.05.2019 14:00:00 21,7 14,1 24,0 26,2 20,4 14,8 9 5 17 9 W 1005,2 35 20 0,0
21.05.2019 13:00:00 20,5 13,6 22,3 25,4 19,8 14,8 8 5 13 7 W 1005,1 35 6 0,0
21.05.2019 12:00:00 21,6 13,3 23,9 26,8 18,7 14,8 5 3 14 8 NNE 1004,9 38 44 0,0
21.05.2019 11:00:00 19,9 12,0 21,3 25,5 17,5 14,8 7 4 12 7 E 1004,5 35 60 0,0
21.05.2019 10:00:00 19,0 13,8 19,6 21,8 16,7 14,8 4 2 11 6 E 1004,3 32 57 0,0
21.05.2019 09:00:00 16,4 13,5 15,9 17,8 16,4 14,8 4 2 12 7 ENE 1004,0 28 57 0,0
21.05.2019 08:00:00 14,1 13,5 13,5 14,2 16,5 14,7 11 6 18 10 ENE 1003,8 17 60 0,0
21.05.2019 07:00:00 13,3 13,0 12,6 13,8 16,8 14,7 11 6 17 9 ENE 1003,7 15 60 0,0
21.05.2019 06:00:00 12,9 12,7 11,2 13,6 17,2 14,7 12 6 16 8 ENE 1003,4 6 23 0,0
21.05.2019 05:00:00 13,0 12,8 10,4 13,9 17,7 14,7 11 6 16 9 ENE 1003,0 15 0 0,0
21.05.2019 04:00:00 12,7 12,5 10,4 14,5 18,1 14,6 12 7 16 9 ENE 1002,7 25 0 0,0
21.05.2019 03:00:00 13,0 12,7 11,8 15,1 18,6 14,6 13 7 17 9 E 1002,8 30 0 0,0
21.05.2019 02:00:00 13,2 12,9 11,4 15,8 19,1 14,6 13 7 18 10 E 1002,5 30 0 0,0
21.05.2019 01:00:00 13,9 13,5 13,1 16,7 19,6 14,5 14 8 20 11 ESE 1002,1 35 0 0,0
21.05.2019 00:00:00 14,9 14,3 14,0 17,8 20,0 14,5 10 6 20 11 SE 1002,1 28 0 0,0
20.05.2019 23:00:00 15,5 15,1 15,1 18,4 20,4 14,5 11 6 21 11 ESE 1001,7 8 0 0,0
20.05.2019 22:00:00 16,7 16,1 16,8 19,5 20,8 14,5 12 7 25 14 ESE 1001,1 7 0 0,3
20.05.2019 21:00:00 16,8 16,1 16,9 20,1 21,2 14,5 13 7 27 15 ENE 1000,8 7 0 0,1
20.05.2019 20:00:00 16,8 16,4 17,3 20,8 21,7 14,4 11 6 21 11 NNE 1000,9 20 4 0,0
20.05.2019 19:00:00 15,9 15,4 16,3 20,8 22,2 14,4 10 6 53 29 WNW 1000,9 18 0 7,2
20.05.2019 18:00:00 17,7 16,6 17,8 23,0 22,7 14,4 16 8 26 14 ENE 1001,4 8 0 1,1
20.05.2019 17:00:00 19,0 15,9 18,1 25,2 22,9 14,4 14 7 20 11 ENE 1001,3 25 0 0,5
20.05.2019 16:00:00 23,4 13,0 24,5 27,5 22,7 14,3 11 6 25 13 NE 1000,9 30 2 0,0
20.05.2019 15:00:00 23,9 12,2 26,0 27,6 22,4 14,3 11 6 28 15 ENE 1001,4 30 0 0,0
20.05.2019 14:00:00 23,0 11,4 24,5 29,1 21,7 14,3 15 8 31 17 E 1002,1 28 8 0,0
20.05.2019 13:00:00 25,7 11,6 30,5 30,4 20,7 14,2 18 10 32 18 E 1002,0 28 56 0,0
20.05.2019 12:00:00 23,9 11,1 28,1 28,3 19,6 14,2 12 6 26 14 E 1002,2 28 54 0,0
20.05.2019 11:00:00 22,0 12,8 26,3 25,4 18,7 14,2 14 8 23 12 NE 1002,7 25 60 0,0
20.05.2019 10:00:00 19,8 13,2 22,3 22,9 18,0 14,1 12 6 19 11 NNE 1002,9 20 60 0,0
20.05.2019 09:00:00 18,6 13,5 21,7 18,9 17,8 14,1 8 4 21 12 N 1002,9 20 55 0,0
20.05.2019 08:00:00 16,2 13,3 15,9 16,6 18,0 14,1 16 9 25 14 ENE 1003,4 20 44 0,0
20.05.2019 07:00:00 15,4 13,7 14,3 16,3 18,2 14,0 10 5 21 12 ENE 1003,0 16 47 0,0
20.05.2019 06:00:00 14,2 13,3 12,9 15,9 18,6 14,0 16 9 22 12 ENE 1003,1 16 7 0,0
20.05.2019 05:00:00 14,3 13,3 12,7 16,3 19,0 14,0 18 10 23 12 ENE 1003,1 22 0 0,0
20.05.2019 04:00:00 14,7 13,6 12,4 16,8 19,5 13,9 17 9 23 12 E 1003,6 25 0 0,0
20.05.2019 03:00:00 15,2 13,7 12,9 17,5 19,9 13,9 17 9 22 12 E 1003,7 25 0 0,0
20.05.2019 02:00:00 15,9 13,7 13,6 18,1 20,4 13,8 16 9 22 12 ENE 1003,7 28 0 0,0
20.05.2019 01:00:00 16,5 13,1 14,0 19,0 20,9 13,8 13 7 20 11 NE 1004,0 30 0 0,0
20.05.2019 00:00:00 17,3 14,0 15,4 19,9 21,4 13,8 8 4 16 9 E 1004,2 30 0 0,0
19.05.2019 23:00:00 17,7 13,9 16,3 20,5 22,0 13,7 13 7 24 13 ENE 1004,2 35 0 0,0
19.05.2019 22:00:00 18,0 14,6 16,0 21,6 22,5 13,7 15 8 25 14 ENE 1004,1 25 0 0,0
19.05.2019 21:00:00 20,3 14,4 19,2 23,3 23,0 13,7 16 8 26 14 ENE 1003,9 35 31 0,0
19.05.2019 20:00:00 20,9 14,6 20,5 24,4 23,4 13,7 16 8 27 15 ENE 1003,7 40 49 0,0
19.05.2019 19:00:00 20,6 14,4 20,8 25,8 23,7 13,6 12 7 22 12 NE 1003,7 40 16 0,0
19.05.2019 18:00:00 20,1 13,2 19,0 28,6 23,8 13,6 14 8 37 20 NE 1004,0 40 25 0,4
19.05.2019 17:00:00 24,1 10,1 25,5 29,4 23,6 13,6 14 8 24 13 NE 1004,0 35 11 0,0
19.05.2019 16:00:00 24,3 9,4 25,8 30,7 23,2 13,5 11 6 31 17 E 1004,4 40 19 0,0
19.05.2019 15:00:00 24,6 8,9 26,0 32,1 22,4 13,5 13 7 33 18 E 1004,4 40 27 0,0
19.05.2019 14:00:00 25,9 9,1 31,5 33,0 21,2 13,5 13 7 34 18 ESE 1004,6 40 52 0,0
19.05.2019 13:00:00 25,3 9,6 30,5 31,4 20,0 13,4 20 11 35 19 E 1005,1 40 56 0,0
19.05.2019 12:00:00 24,3 9,6 28,0 28,9 18,7 13,4 18 10 37 20 ESE 1005,6 40 60 0,0
19.05.2019 11:00:00 22,8 10,0 26,4 25,7 17,7 13,4 11 6 32 17 E 1005,9 38 60 0,0
19.05.2019 10:00:00 21,2 10,3 24,7 22,0 17,0 13,3 13 7 25 13 E 1006,3 35 60 0,0
19.05.2019 09:00:00 17,5 10,1 20,2 18,0 16,8 13,3 10 5 17 9 E 1006,6 35 60 0,0
19.05.2019 08:00:00 14,5 10,2 14,2 15,8 16,9 13,3 8 5 17 9 E 1006,8 32 39 0,0
19.05.2019 07:00:00 13,1 10,0 13,1 14,9 17,2 13,2 13 7 22 12 E 1006,7 28 33 0,0
19.05.2019 06:00:00 12,3 9,4 9,8 14,6 17,6 13,2 17 9 24 13 E 1006,9 30 10 0,0
19.05.2019 05:00:00 12,6 9,3 9,4 15,1 18,1 13,2 17 9 21 12 E 1006,6 30 0 0,0
19.05.2019 04:00:00 13,4 9,2 10,2 15,7 18,6 13,1 16 9 19 10 E 1006,6 35 0 0,0
19.05.2019 03:00:00 13,8 9,1 10,9 16,3 19,1 13,1 16 8 19 10 E 1006,9 35 0 0,0
19.05.2019 02:00:00 14,4 8,3 10,6 17,1 19,7 13,1 8 4 17 9 SE 1007,0 40 0 0,0
19.05.2019 01:00:00 15,6 8,7 11,6 18,0 20,4 13,0 10 5 14 8 SE 1006,9 40 0 0,0
19.05.2019 00:00:00 16,1 8,7 12,5 19,0 21,0 13,0 10 6 16 9 SE 1007,1 40 0 0,0
18.05.2019 23:00:00 16,9 8,5 12,4 20,1 21,7 13,0 12 6 15 8 SE 1007,2 45 0 0,0
18.05.2019 22:00:00 17,1 8,0 13,0 21,6 22,4 13,0 11 6 17 9 SSE 1006,9 45 0 0,0
18.05.2019 21:00:00 18,4 8,2 14,6 23,6 23,1 13,0 10 5 17 9 SSE 1006,4 45 55 0,0
18.05.2019 20:00:00 21,2 7,4 19,3 26,1 23,4 13,0 9 5 23 12 SSE 1006,1 45 60 0,0
18.05.2019 19:00:00 22,8 6,0 24,3 29,3 23,4 13,0 12 7 27 15 SSE 1006,0 45 60 0,0
18.05.2019 18:00:00 23,4 6,9 26,2 31,5 23,0 12,9 13 7 28 15 S 1006,0 45 60 0,0
18.05.2019 17:00:00 24,0 7,2 27,1 33,1 22,3 12,9 11 6 28 15 SE 1006,0 45 60 0,0
18.05.2019 16:00:00 23,7 7,0 27,5 33,5 21,2 12,9 13 7 38 21 SSE 1006,3 45 60 0,0
18.05.2019 15:00:00 22,9 7,6 28,0 33,0 19,9 12,9 16 9 36 19 SSE 1006,5 40 57 0,0
18.05.2019 14:00:00 22,3 7,1 24,5 31,6 18,5 12,9 16 9 40 21 ESE 1006,8 40 55 0,0
18.05.2019 13:00:00 22,0 7,6 25,3 30,0 17,0 12,9 21 12 40 22 SE 1007,3 40 60 0,0
18.05.2019 12:00:00 21,0 8,9 26,0 27,0 15,6 12,9 16 8 41 22 ESE 1007,7 40 60 0,0
18.05.2019 11:00:00 18,6 8,6 21,7 23,4 14,4 12,9 20 11 35 19 E 1008,3 38 60 0,0
18.05.2019 10:00:00 17,2 9,2 19,7 19,2 13,5 12,9 16 8 22 12 E 1008,6 35 60 0,0
18.05.2019 09:00:00 15,0 10,2 17,0 14,6 13,2 12,9 10 5 20 11 E 1009,1 25 60 0,0
18.05.2019 08:00:00 12,2 10,5 10,9 11,3 13,4 12,9 9 5 21 11 E 1008,9 13 60 0,0
18.05.2019 07:00:00 10,5 9,9 9,1 11,0 13,7 12,8 13 7 21 12 ESE 1009,2 15 60 0,0
18.05.2019 06:00:00 9,9 9,5 9,0 10,9 14,0 12,8 15 8 21 12 E 1009,3 15 12 0,0
18.05.2019 05:00:00 10,2 9,7 8,9 11,2 14,4 12,8 17 9 22 12 E 1009,2 25 0 0,0
18.05.2019 04:00:00 10,6 9,8 8,5 11,8 14,9 12,8 16 9 22 12 E 1009,3 35 0 0,0
18.05.2019 03:00:00 11,3 10,1 9,0 12,5 15,3 12,8 17 9 23 12 E 1009,2 35 0 0,0

tt = Température de l'air
td = dewpoint
tt 5cm = Température de l'air 5cm
tt -5cm = Température de l'air -5cm
tt -20cm = Température de l'air -20cm
tt -100cm = Température de l'air -100cm
ff = Vitesse du vent
fx = gusts
dd = Direction du vent
ppp = reduced air pressure
vv = visibility
sd = Ensoleillement
rr = Quantités de précipitations

stations d'obs. à proximité